Location: Unspecified
(0.0000°N, 0.0000°E)
Time: 09:56:46
(UTC+02:00)

Meteor PRIRODA - Visible Passes

Search period start: 23 October 2014 00:00
Search period end: 01 November 2014 23:00
Orbit: 509 x 532 km, 97.3° (Epoch: 22 October)

Date Brightness Start Highest point End Pass type
(mag) Time Alt. Az. Time Alt. Az. Time Alt. Az.
23 Oct 5.2 06:20:18 10° NNE 06:23:44 37° E 06:27:11 10° S visible
24 Oct 6.2 06:07:32 10° NE 06:10:29 23° ESE 06:13:27 10° SSE visible
25 Oct 6.9 05:55:12 10° ENE 05:57:14 14° ESE 05:59:16 10° SE visible
26 Oct 4.7 06:14:48 10° NNW 06:17:52 25° W 06:20:56 10° SW visible
27 Oct 4.0 06:01:05 10° N 06:04:34 40° W 06:08:05 10° SSW visible
28 Oct 3.5 05:47:35 10° N 05:51:16 70° W 05:54:59 10° SSW visible
29 Oct 4.0 05:34:17 10° NNE 05:37:58 68° E 05:41:40 10° S visible
30 Oct 5.1 05:21:10 10° NNE 05:24:38 39° E 05:28:08 10° S visible
31 Oct 6.1 05:08:17 10° NE 05:11:19 24° ESE 05:14:22 10° SSE visible
01 Nov 6.8 04:55:48 10° ENE 04:57:59 15° ESE 05:00:10 10° SE visible
